This demonstration page uses our WeatherBlox Daily Observations layout. Learn more.

39.92423, -83.80882

Hourly Observations for June 29, 2016

Temp ( °F °C ) Dew Point ( °F °C ) Humidity (%) Winds ( mph kmh ) Pressure ( in mb ) Visibility ( mi km ) Precip ( " mm )
12:56 am 00:56 Clear 58 14.4 54 12.2 87 87 NW 5 7 30.07 1018 10 16.0934 0 0
1:56 am 01:56 Clear 57 13.8 54 12.2 90 90 W 5 7 30.06 1018 10 16.0934 0 0
2:56 am 02:56 Mostly Clear 57 13.8 54 12.2 90 90 NW 5 7 30.06 1018 10 16.0934 0 0
3:56 am 03:56 Mostly Cloudy 56 13.3 55 12.7 96 96 NW 5 7 30.06 1018 10 16.0934 0 0
4:56 am 04:56 Mostly Cloudy 57 13.8 55 12.7 93 93 NNW 5 7 30.06 1018 10 16.0934 0 0
5:56 am 05:56 Mostly Cloudy 57 13.8 56 13.3 97 97 WNW 6 9 30.08 1019 10 16.0934 0 0
6:56 am 06:56 Mostly Cloudy 57 13.8 57 13.8 100 100 WNW 3 6 30.09 1019 10 16.0934 0 0
7:56 am 07:56 Mostly Cloudy 60 15.5 58 14.4 93 93 N 6 9 30.09 1019 10 16.0934 0 0
8:56 am 08:56 Mostly Sunny 65 18.3 57 13.8 75 75 N 8 13 30.11 1020 10 16.0934 0 0
9:56 am 09:56 Partly Cloudy 67 19.4 56 13.3 68 68 N 8 13 30.12 1020 10 16.0934 0 0
10:56 am 10:56 Mostly Sunny 68 20 53 11.6 59 59 N 8 13 30.11 1020 10 16.0934 0 0
11:56 am 11:56 Mostly Sunny 71 21.6 50 10 48 48 VRB 7 11 30.11 1020 10 16.0934 0 0
12:56 pm 12:56 Sunny 73 22.7 43 6.1 34 34 W 6 9 30.11 1020 10 16.0934 0 0
1:56 pm 13:56 Sunny 75 23.8 44 6.6 33 33 NE 6 9 30.11 1020 10 16.0934 0 0
2:56 pm 14:56 Sunny 77 25 45 7.2 32 32 N 6 9 30.09 1019 10 16.0934 0 0
3:56 pm 15:56 Sunny 79 26.1 45 7.2 30 30 WNW 6 9 30.08 1019 10 16.0934 0 0
4:56 pm 16:56 Partly Cloudy 78 25.5 45 7.2 31 31 NNE 8 13 30.07 1018 10 16.0934 0 0
5:56 pm 17:56 Sunny 79 26.1 46 7.7 31 31 N 6 9 30.05 1018 10 16.0934 0 0
6:56 pm 18:56 Sunny 78 25.5 44 6.6 30 30 NW 7 11 30.05 1018 10 16.0934 0 0
7:56 pm 19:56 Sunny 76 24.4 45 7.2 33 33 NW 5 7 30.05 1018 10 16.0934 0 0
8:56 pm 20:56 Sunny 72 22.2 49 9.4 44 44 NNE 5 7 30.05 1018 10 16.0934 0 0
9:56 pm 21:56 Clear 66 18.8 52 11.1 61 61 Calm 30.07 1018 10 16.0934 0 0
10:56 pm 22:56 Clear 62 16.6 52 11.1 70 70 E 3 6 30.08 1019 10 16.0934 0 0
11:56 pm 23:56 Clear 57 13.8 52 11.1 84 84 ESE 3 6 30.08 1019 10 16.0934 0 0

Powered by AerisWeather